This is the latest recevied weather packets stored in our database for station/object IR3AS. If no packets are shown the sender has not sent any weather packets the latest 10 day(s).
| Time | Temp. | Humidity | Pressure | Rain* | Wind** | Luminosity | Snow |
|---|---|---|---|---|---|---|---|
| 1777882854 | 10° C | 61% | 860.5 hPa | 0 mm | - | - | - |
| 1777882554 | 10° C | 62% | 860.6 hPa | 0 mm | - | - | - |
| 1777882254 | 9.44° C | 62% | 860.6 hPa | 0 mm | - | - | - |
| 1777881954 | 9.44° C | 62% | 860.4 hPa | 0 mm | - | - | - |
| 1777881654 | 9.44° C | 63% | 860.2 hPa | 0 mm | - | - | - |
| 1777881354 | 8.89° C | 63% | 860.5 hPa | 0 mm | - | - | - |
| 1777881054 | 8.89° C | 64% | 860.5 hPa | 0 mm | - | - | - |
| 1777880754 | 8.89° C | 64% | 860.6 hPa | 0 mm | - | - | - |
| 1777880454 | 8.89° C | 63% | 860.6 hPa | 0 mm | - | - | - |
| 1777880154 | 8.89° C | 64% | 860.5 hPa | 0 mm | - | - | - |
| 1777879854 | 8.89° C | 63% | 860.7 hPa | 0 mm | - | - | - |
| 1777879554 | 8.33° C | 64% | 860.6 hPa | 0 mm | - | - | - |
| 1777879254 | 8.33° C | 63% | 860.6 hPa | 0 mm | - | - | - |
| 1777878954 | 8.33° C | 63% | 860.6 hPa | 0 mm | - | - | - |
| 1777878654 | 8.33° C | 63% | 860.4 hPa | 0 mm | - | - | - |
| 1777878354 | 8.89° C | 62% | 860 hPa | 0 mm | - | - | - |
| 1777878054 | 8.89° C | 61% | 859.8 hPa | 0 mm | - | - | - |
| 1777877754 | 8.89° C | 60% | 859.7 hPa | 0 mm | - | - | - |
| 1777877454 | 9.44° C | 59% | 859.5 hPa | 0 mm | - | - | - |
| 1777877154 | 10.56° C | 57% | 859.4 hPa | 0 mm | - | - | - |
| 1777876854 | 10.56° C | 56% | 859.2 hPa | 0 mm | - | - | - |
| 1777876554 | 10.56° C | 57% | 859.1 hPa | 0 mm | - | - | - |
| 1777876254 | 10° C | 58% | 859 hPa | 0 mm | - | - | - |
| 1777875954 | 8.89° C | 60% | 859.2 hPa | 0 mm | - | - | - |
| 1777875654 | 7.78° C | 61% | 859.1 hPa | 0 mm | - | - | - |
* Rain latest hour (hover to see other rain measurements)
** Current wind speed in m/s (hover to see current wind gust speed)